M I D A S
Marine Information and Data Acquisition System
Tripno 1494 of the Zeeleeuw from 2008-05-28 06:27:09 to 2008-05-28 15:19:20
Back to CruiseResearch ActivitiesStationsMapUnderway DataData graphs

EquipmentUnitsComments
TimeDGPSUTC
LatitudeDGPSDM.mWGS84
LongitudeDGPSDM.mWGS84
SpeedMeteo Stationm/sRelative wind speed
DirectionMeteo StationdegRelative wind direction
TemperatureMeteo Stationdeg CelciusAir temperature
PressureMeteo StationPaAtmospheric pressure
HumidityMeteo Station%Relative humidity
Missing or incorrect values are displayed as -999
Metereological data collected by the RV Zeeleeuw from 2008-05-28 06:27:47 to 2008-05-28 15:23:53
                                                                                    Next 1000 lines
Time Latitude Longitude Speed Direction Temperature Pressure Humidity
2008-05-28 06:27:57 51°13.623 2°56.047 -999 -999 -999 -999 -999
2008-05-28 06:28:02 51°13.623 2°56.044 -999 -999 -999 -999 -999
2008-05-28 06:28:07 51°13.624 2°56.041 -999 -999 -999 -999 -999
2008-05-28 06:28:12 51°13.626 2°56.036 -999 -999 -999 -999 -999
2008-05-28 06:28:17 51°13.627 2°56.031 -999 -999 -999 -999 -999
2008-05-28 06:28:22 51°13.629 2°56.026 -999 -999 -999 -999 -999
2008-05-28 06:28:27 51°13.631 2°56.019 -999 -999 -999 -999 -999
2008-05-28 06:28:32 51°13.633 2°56.013 -999 -999 -999 -999 -999
2008-05-28 06:28:38 51°13.636 2°56.004 -999 -999 -999 -999 -999
2008-05-28 06:28:43 51°13.639 2°55.996 -999 -999 -999 -999 -999
2008-05-28 06:28:47 51°13.641 2°55.989 -999 -999 -999 -999 -999
2008-05-28 06:28:52 51°13.643 2°55.981 -999 -999 -999 -999 -999
2008-05-28 06:28:58 51°13.646 2°55.97 -999 -999 -999 -999 -999
2008-05-28 06:29:03 51°13.649 2°55.961 -999 -999 -999 -999 -999
2008-05-28 06:29:07 51°13.651 2°55.954 -999 -999 -999 -999 -999
2008-05-28 06:29:12 51°13.654 2°55.944 -999 -999 -999 -999 -999
2008-05-28 06:29:17 51°13.657 2°55.934 -999 -999 -999 -999 -999
2008-05-28 06:29:23 51°13.66 2°55.923 -999 -999 -999 -999 -999
2008-05-28 06:29:27 51°13.662 2°55.915 -999 -999 -999 -999 -999
2008-05-28 06:29:32 51°13.665 2°55.905 -999 -999 -999 -999 -999
2008-05-28 06:29:37 51°13.668 2°55.895 -999 -999 -999 -999 -999
2008-05-28 06:29:42 51°13.671 2°55.884 -999 -999 -999 -999 -999
2008-05-28 06:29:48 51°13.674 2°55.872 -999 -999 -999 -999 -999
2008-05-28 06:29:53 51°13.677 2°55.862 -999 -999 -999 -999 -999
2008-05-28 06:29:57 51°13.679 2°55.854 -999 -999 -999 -999 -999
2008-05-28 06:30:02 51°13.68 2°55.844 -999 -999 -999 -999 -999
2008-05-28 06:30:07 51°13.683 2°55.834 -999 -999 -999 -999 -999
2008-05-28 06:30:13 51°13.684 2°55.823 -999 -999 -999 -999 -999
2008-05-28 06:30:17 51°13.686 2°55.815 -999 -999 -999 -999 -999
2008-05-28 06:30:22 51°13.687 2°55.807 -999 -999 -999 -999 -999
2008-05-28 06:30:27 51°13.688 2°55.798 -999 -999 -999 -999 -999
2008-05-28 06:30:33 51°13.688 2°55.789 -999 -999 -999 -999 -999
2008-05-28 06:30:38 51°13.689 2°55.781 -999 -999 -999 -999 -999
2008-05-28 06:30:42 51°13.69 2°55.775 -999 -999 -999 -999 -999
2008-05-28 06:30:47 51°13.69 2°55.768 -999 -999 -999 -999 -999
2008-05-28 06:30:52 51°13.691 2°55.762 -999 -999 -999 -999 -999
2008-05-28 06:30:58 51°13.691 2°55.755 -999 -999 -999 -999 -999
2008-05-28 06:31:02 51°13.691 2°55.751 -999 -999 -999 -999 -999
2008-05-28 06:31:07 51°13.691 2°55.746 -999 -999 -999 -999 -999
2008-05-28 06:31:12 51°13.691 2°55.742 -999 -999 -999 -999 -999
2008-05-28 06:31:17 51°13.691 2°55.739 -999 -999 -999 -999 -999
2008-05-28 06:31:22 51°13.69 2°55.736 -999 -999 -999 -999 -999
2008-05-28 06:31:27 51°13.69 2°55.734 -999 -999 -999 -999 -999
2008-05-28 06:31:32 51°13.69 2°55.732 -999 -999 -999 -999 -999
2008-05-28 06:31:37 51°13.691 2°55.73 -999 -999 -999 -999 -999
2008-05-28 06:31:42 51°13.692 2°55.729 -999 -999 -999 -999 -999
2008-05-28 06:31:47 51°13.692 2°55.729 -999 -999 -999 -999 -999
2008-05-28 06:31:52 51°13.693 2°55.729 -999 -999 -999 -999 -999
2008-05-28 06:31:57 51°13.694 2°55.729 -999 -999 -999 -999 -999
2008-05-28 06:32:02 51°13.696 2°55.729 -999 -999 -999 -999 -999
2008-05-28 06:32:07 51°13.697 2°55.729 -999 -999 -999 -999 -999
2008-05-28 06:32:12 51°13.699 2°55.73 -999 -999 -999 -999 -999
2008-05-28 06:32:17 51°13.701 2°55.73 -999 -999 -999 -999 -999
2008-05-28 06:32:22 51°13.704 2°55.73 -999 -999 -999 -999 -999
2008-05-28 06:32:27 51°13.707 2°55.73 -999 -999 -999 -999 -999
2008-05-28 06:32:32 51°13.711 2°55.729 -999 -999 -999 -999 -999
2008-05-28 06:32:37 51°13.716 2°55.728 -999 -999 -999 -999 -999
2008-05-28 06:32:42 51°13.72 2°55.726 -999 -999 -999 -999 -999
2008-05-28 06:32:47 51°13.725 2°55.724 -999 -999 -999 -999 -999
2008-05-28 06:32:52 51°13.73 2°55.721 -999 -999 -999 -999 -999
2008-05-28 06:32:57 51°13.736 2°55.717 -999 -999 -999 -999 -999
2008-05-28 06:33:02 51°13.742 2°55.712 -999 -999 -999 -999 -999
2008-05-28 06:33:07 51°13.749 2°55.707 -999 -999 -999 -999 -999
2008-05-28 06:33:12 51°13.756 2°55.701 -999 -999 -999 -999 -999
2008-05-28 06:33:18 51°13.766 2°55.692 -999 -999 -999 -999 -999
2008-05-28 06:33:23 51°13.774 2°55.685 -999 -999 -999 -999 -999
2008-05-28 06:33:27 51°13.781 2°55.679 -999 -999 -999 -999 -999
2008-05-28 06:33:32 51°13.789 2°55.671 -999 -999 -999 -999 -999
2008-05-28 06:33:37 51°13.798 2°55.663 -999 -999 -999 -999 -999
2008-05-28 06:33:43 51°13.809 2°55.654 -999 -999 -999 -999 -999
2008-05-28 06:33:47 51°13.817 2°55.648 -999 -999 -999 -999 -999
2008-05-28 06:33:52 51°13.826 2°55.64 -999 -999 -999 -999 -999
2008-05-28 06:33:57 51°13.836 2°55.633 -999 -999 -999 -999 -999
2008-05-28 06:34:02 51°13.847 2°55.626 -999 -999 -999 -999 -999
2008-05-28 06:34:07 51°13.858 2°55.619 -999 -999 -999 -999 -999
2008-05-28 06:34:12 51°13.868 2°55.612 -999 -999 -999 -999 -999
2008-05-28 06:34:17 51°13.879 2°55.604 -999 -999 -999 -999 -999
2008-05-28 06:34:22 51°13.89 2°55.597 -999 -999 -999 -999 -999
2008-05-28 06:34:27 51°13.9 2°55.59 -999 -999 -999 -999 -999
2008-05-28 06:34:32 51°13.911 2°55.582 -999 -999 -999 -999 -999
2008-05-28 06:34:37 51°13.922 2°55.574 -999 -999 -999 -999 -999
2008-05-28 06:34:42 51°13.933 2°55.567 -999 -999 -999 -999 -999
2008-05-28 06:34:47 51°13.944 2°55.559 -999 -999 -999 -999 -999
2008-05-28 06:34:52 51°13.955 2°55.552 -999 -999 -999 -999 -999
2008-05-28 06:34:57 51°13.966 2°55.544 -999 -999 -999 -999 -999
2008-05-28 06:35:02 51°13.977 2°55.537 -999 -999 -999 -999 -999
2008-05-28 06:35:07 51°13.988 2°55.53 -999 -999 -999 -999 -999
2008-05-28 06:35:12 51°13.999 2°55.523 -999 -999 -999 -999 -999
2008-05-28 06:35:17 51°14.009 2°55.517 -999 -999 -999 -999 -999
2008-05-28 06:35:22 51°14.018 2°55.51 -999 -999 -999 -999 -999
2008-05-28 06:35:27 51°14.027 2°55.504 -999 -999 -999 -999 -999
2008-05-28 06:35:32 51°14.036 2°55.497 -999 -999 -999 -999 -999
2008-05-28 06:35:37 51°14.044 2°55.491 -999 -999 -999 -999 -999
2008-05-28 06:35:42 51°14.053 2°55.485 -999 -999 -999 -999 -999
2008-05-28 06:35:47 51°14.061 2°55.478 -999 -999 -999 -999 -999
2008-05-28 06:35:52 51°14.069 2°55.472 -999 -999 -999 -999 -999
2008-05-28 06:35:57 51°14.076 2°55.467 -999 -999 -999 -999 -999
2008-05-28 06:36:03 51°14.085 2°55.46 -999 -999 -999 -999 -999
2008-05-28 06:36:07 51°14.091 2°55.455 -999 -999 -999 -999 -999
2008-05-28 06:36:12 51°14.098 2°55.449 -999 -999 -999 -999 -999
2008-05-28 06:36:17 51°14.106 2°55.444 -999 -999 -999 -999 -999
2008-05-28 06:36:23 51°14.114 2°55.438 -999 -999 -999 -999 -999
2008-05-28 06:36:27 51°14.12 2°55.433 -999 -999 -999 -999 -999
2008-05-28 06:36:32 51°14.127 2°55.428 -999 -999 -999 -999 -999
2008-05-28 06:36:37 51°14.134 2°55.423 -999 -999 -999 -999 -999
2008-05-28 06:36:42 51°14.141 2°55.418 -999 -999 -999 -999 -999
2008-05-28 06:36:47 51°14.148 2°55.412 -999 -999 -999 -999 -999
2008-05-28 06:36:52 51°14.155 2°55.407 -999 -999 -999 -999 -999
2008-05-28 06:36:57 51°14.162 2°55.401 -999 -999 -999 -999 -999
2008-05-28 06:37:02 51°14.169 2°55.396 -999 -999 -999 -999 -999
2008-05-28 06:37:07 51°14.176 2°55.39 -999 -999 -999 -999 -999
2008-05-28 06:37:12 51°14.183 2°55.385 -999 -999 -999 -999 -999
2008-05-28 06:37:18 51°14.191 2°55.378 -999 -999 -999 -999 -999
2008-05-28 06:37:22 51°14.196 2°55.374 -999 -999 -999 -999 -999
2008-05-28 06:37:27 51°14.204 2°55.368 -999 -999 -999 -999 -999
2008-05-28 06:37:32 51°14.211 2°55.362 -999 -999 -999 -999 -999
2008-05-28 06:37:37 51°14.218 2°55.356 -999 -999 -999 -999 -999
2008-05-28 06:37:42 51°14.224 2°55.349 -999 -999 -999 -999 -999
2008-05-28 06:37:47 51°14.231 2°55.341 -999 -999 -999 -999 -999
2008-05-28 06:37:52 51°14.237 2°55.332 -999 -999 -999 -999 -999
2008-05-28 06:37:57 51°14.244 2°55.324 -999 -999 -999 -999 -999
2008-05-28 06:38:02 51°14.249 2°55.314 -999 -999 -999 -999 -999
2008-05-28 06:38:07 51°14.256 2°55.305 -999 -999 -999 -999 -999
2008-05-28 06:38:12 51°14.262 2°55.294 -999 -999 -999 -999 -999
2008-05-28 06:38:17 51°14.267 2°55.284 -999 -999 -999 -999 -999
2008-05-28 06:38:23 51°14.275 2°55.27 -999 -999 -999 -999 -999
2008-05-28 06:38:27 51°14.279 2°55.261 -999 -999 -999 -999 -999
2008-05-28 06:38:32 51°14.285 2°55.248 -999 -999 -999 -999 -999
2008-05-28 06:38:37 51°14.291 2°55.235 -999 -999 -999 -999 -999
2008-05-28 06:38:43 51°14.299 2°55.219 -999 -999 -999 -999 -999
2008-05-28 06:38:47 51°14.303 2°55.208 -999 -999 -999 -999 -999
2008-05-28 06:38:52 51°14.31 2°55.193 -999 -999 -999 -999 -999
2008-05-28 06:38:57 51°14.316 2°55.178 -999 -999 -999 -999 -999
2008-05-28 06:39:02 51°14.322 2°55.163 -999 -999 -999 -999 -999
2008-05-28 06:39:08 51°14.33 2°55.143 -999 -999 -999 -999 -999
2008-05-28 06:39:13 51°14.336 2°55.127 -999 -999 -999 -999 -999
2008-05-28 06:39:17 51°14.342 2°55.114 -999 -999 -999 -999 -999
2008-05-28 06:39:22 51°14.349 2°55.097 -999 -999 -999 -999 -999
2008-05-28 06:39:27 51°14.357 2°55.079 -999 -999 -999 -999 -999
2008-05-28 06:39:33 51°14.367 2°55.058 -999 -999 -999 -999 -999
2008-05-28 06:39:38 51°14.377 2°55.042 -999 -999 -999 -999 -999
2008-05-28 06:39:42 51°14.385 2°55.029 -999 -999 -999 -999 -999
2008-05-28 06:39:47 51°14.396 2°55.013 -999 -999 -999 -999 -999
2008-05-28 06:39:52 51°14.408 2°54.998 -999 -999 -999 -999 -999
2008-05-28 06:39:58 51°14.424 2°54.981 -999 -999 -999 -999 -999
2008-05-28 06:40:03 51°14.437 2°54.969 -999 -999 -999 -999 -999
2008-05-28 06:40:07 51°14.448 2°54.958 -999 -999 -999 -999 -999
2008-05-28 06:40:12 51°14.462 2°54.946 -999 -999 -999 -999 -999
2008-05-28 06:40:18 51°14.48 2°54.93 -999 -999 -999 -999 -999
2008-05-28 06:40:23 51°14.494 2°54.918 -999 -999 -999 -999 -999
2008-05-28 06:40:27 51°14.506 2°54.908 -999 -999 -999 -999 -999
2008-05-28 06:40:32 51°14.521 2°54.895 -999 -999 -999 -999 -999
2008-05-28 06:40:37 51°14.536 2°54.881 -999 -999 -999 -999 -999
2008-05-28 06:40:43 51°14.554 2°54.864 -999 -999 -999 -999 -999
2008-05-28 06:40:47 51°14.566 2°54.854 -999 -999 -999 -999 -999
2008-05-28 06:40:52 51°14.58 2°54.84 -999 -999 -999 -999 -999
2008-05-28 06:40:57 51°14.595 2°54.825 -999 -999 -999 -999 -999
2008-05-28 06:41:03 51°14.613 2°54.808 -999 -999 -999 -999 -999
2008-05-28 06:41:07 51°14.625 2°54.796 -999 -999 -999 -999 -999
2008-05-28 06:41:12 51°14.64 2°54.781 -999 -999 -999 -999 -999
2008-05-28 06:41:17 51°14.655 2°54.766 -999 -999 -999 -999 -999
2008-05-28 06:41:22 51°14.67 2°54.752 -999 -999 -999 -999 -999
2008-05-28 06:41:27 51°14.685 2°54.738 -999 -999 -999 -999 -999
2008-05-28 06:41:32 51°14.7 2°54.725 -999 -999 -999 -999 -999
2008-05-28 06:41:37 51°14.716 2°54.712 -999 -999 -999 -999 -999
2008-05-28 06:41:42 51°14.731 2°54.699 -999 -999 -999 -999 -999
2008-05-28 06:41:47 51°14.747 2°54.686 -999 -999 -999 -999 -999
2008-05-28 06:41:52 51°14.763 2°54.673 -999 -999 -999 -999 -999
2008-05-28 06:41:57 51°14.778 2°54.66 -999 -999 -999 -999 -999
2008-05-28 06:42:02 51°14.794 2°54.647 -999 -999 -999 -999 -999
2008-05-28 06:42:07 51°14.809 2°54.635 -999 -999 -999 -999 -999
2008-05-28 06:42:12 51°14.824 2°54.622 -999 -999 -999 -999 -999
2008-05-28 06:42:17 51°14.84 2°54.61 -999 -999 -999 -999 -999
2008-05-28 06:42:22 51°14.856 2°54.597 -999 -999 -999 -999 -999
2008-05-28 06:42:27 51°14.871 2°54.585 -999 -999 -999 -999 -999
2008-05-28 06:42:32 51°14.887 2°54.573 -999 -999 -999 -999 -999
2008-05-28 06:42:37 51°14.903 2°54.561 -999 -999 -999 -999 -999
2008-05-28 06:42:42 51°14.919 2°54.549 -999 -999 -999 -999 -999
2008-05-28 06:42:47 51°14.934 2°54.537 -999 -999 -999 -999 -999
2008-05-28 06:42:52 51°14.95 2°54.524 -999 -999 -999 -999 -999
2008-05-28 06:42:57 51°14.965 2°54.511 -999 -999 -999 -999 -999
2008-05-28 06:43:02 51°14.98 2°54.497 -999 -999 -999 -999 -999
2008-05-28 06:43:07 51°14.995 2°54.484 -999 -999 -999 -999 -999
2008-05-28 06:43:12 51°15.01 2°54.47 -999 -999 -999 -999 -999
2008-05-28 06:43:17 51°15.025 2°54.456 -999 -999 -999 -999 -999
2008-05-28 06:43:22 51°15.04 2°54.443 -999 -999 -999 -999 -999
2008-05-28 06:43:27 51°15.055 2°54.43 -999 -999 -999 -999 -999
2008-05-28 06:43:32 51°15.071 2°54.416 -999 -999 -999 -999 -999
2008-05-28 06:43:37 51°15.086 2°54.403 -999 -999 -999 -999 -999
2008-05-28 06:43:42 51°15.101 2°54.39 -999 -999 -999 -999 -999
2008-05-28 06:43:47 51°15.116 2°54.377 -999 -999 -999 -999 -999
2008-05-28 06:43:52 51°15.131 2°54.363 -999 -999 -999 -999 -999
2008-05-28 06:43:57 51°15.146 2°54.349 -999 -999 -999 -999 -999
2008-05-28 06:44:02 51°15.16 2°54.335 -999 -999 -999 -999 -999
2008-05-28 06:44:07 51°15.175 2°54.32 -999 -999 -999 -999 -999
2008-05-28 06:44:11 51°15.186 2°54.308 -999 -999 -999 -999 -999
2008-05-28 06:44:17 51°15.204 2°54.291 -999 -999 -999 -999 -999
2008-05-28 06:44:22 51°15.219 2°54.276 -999 -999 -999 -999 -999
2008-05-28 06:44:27 51°15.233 2°54.262 -999 -999 -999 -999 -999
2008-05-28 06:44:32 51°15.248 2°54.247 -999 -999 -999 -999 -999
2008-05-28 06:44:37 51°15.263 2°54.233 -999 -999 -999 -999 -999
2008-05-28 06:44:42 51°15.278 2°54.219 -999 -999 -999 -999 -999
2008-05-28 06:44:47 51°15.292 2°54.204 -999 -999 -999 -999 -999
2008-05-28 06:44:51 51°15.304 2°54.193 -999 -999 -999 -999 -999
2008-05-28 06:44:56 51°15.319 2°54.179 -999 -999 -999 -999 -999
2008-05-28 06:45:02 51°15.337 2°54.163 -999 -999 -999 -999 -999
2008-05-28 06:45:07 51°15.352 2°54.149 -999 -999 -999 -999 -999
2008-05-28 06:45:11 51°15.364 2°54.138 -999 -999 -999 -999 -999
2008-05-28 06:45:17 51°15.382 2°54.121 -999 -999 -999 -999 -999
2008-05-28 06:45:23 51°15.401 2°54.105 -999 -999 -999 -999 -999
2008-05-28 06:45:28 51°15.416 2°54.092 -999 -999 -999 -999 -999
2008-05-28 06:45:32 51°15.428 2°54.081 -999 -999 -999 -999 -999
2008-05-28 06:45:37 51°15.443 2°54.068 -999 -999 -999 -999 -999
2008-05-28 06:45:42 51°15.459 2°54.055 -999 -999 -999 -999 -999
2008-05-28 06:45:48 51°15.477 2°54.04 -999 -999 -999 -999 -999
2008-05-28 06:45:52 51°15.49 2°54.03 -999 -999 -999 -999 -999
2008-05-28 06:45:57 51°15.505 2°54.017 -999 -999 -999 -999 -999
2008-05-28 06:46:02 51°15.521 2°54.004 -999 -999 -999 -999 -999
2008-05-28 06:46:08 51°15.539 2°53.988 -999 -999 -999 -999 -999
2008-05-28 06:46:13 51°15.555 2°53.975 -999 -999 -999 -999 -999
2008-05-28 06:46:17 51°15.567 2°53.965 -999 -999 -999 -999 -999
2008-05-28 06:46:22 51°15.582 2°53.951 -999 -999 -999 -999 -999
2008-05-28 06:46:28 51°15.6 2°53.934 -999 -999 -999 -999 -999
2008-05-28 06:46:33 51°15.615 2°53.92 -999 -999 -999 -999 -999
2008-05-28 06:46:37 51°15.627 2°53.909 -999 -999 -999 -999 -999
2008-05-28 06:46:43 51°15.645 2°53.892 -999 -999 -999 -999 -999
2008-05-28 06:46:48 51°15.66 2°53.877 -999 -999 -999 -999 -999
2008-05-28 06:46:52 51°15.672 2°53.867 -999 -999 -999 -999 -999
2008-05-28 06:46:57 51°15.687 2°53.853 -999 -999 -999 -999 -999
2008-05-28 06:47:03 51°15.705 2°53.836 -999 -999 -999 -999 -999
2008-05-28 06:47:08 51°15.72 2°53.823 -999 -999 -999 -999 -999
2008-05-28 06:47:12 51°15.733 2°53.813 -999 -999 -999 -999 -999
2008-05-28 06:47:17 51°15.748 2°53.8 -999 -999 -999 -999 -999
2008-05-28 06:47:23 51°15.767 2°53.785 -999 -999 -999 -999 -999
2008-05-28 06:47:28 51°15.782 2°53.772 -999 -999 -999 -999 -999
2008-05-28 06:47:32 51°15.794 2°53.762 -999 -999 -999 -999 -999
2008-05-28 06:47:37 51°15.81 2°53.749 -999 -999 -999 -999 -999
2008-05-28 06:47:43 51°15.828 2°53.734 -999 -999 -999 -999 -999
2008-05-28 06:47:48 51°15.843 2°53.721 -999 -999 -999 -999 -999
2008-05-28 06:47:52 51°15.856 2°53.711 -999 -999 -999 -999 -999
2008-05-28 06:47:57 51°15.871 2°53.698 -999 -999 -999 -999 -999
2008-05-28 06:48:02 51°15.886 2°53.684 -999 -999 -999 -999 -999
2008-05-28 06:48:08 51°15.904 2°53.668 -999 -999 -999 -999 -999
2008-05-28 06:48:12 51°15.915 2°53.657 -999 -999 -999 -999 -999
2008-05-28 06:48:17 51°15.93 2°53.643 -999 -999 -999 -999 -999
2008-05-28 06:48:22 51°15.945 2°53.629 -999 -999 -999 -999 -999
2008-05-28 06:48:28 51°15.963 2°53.612 -999 -999 -999 -999 -999
2008-05-28 06:48:32 51°15.975 2°53.601 -999 -999 -999 -999 -999
2008-05-28 06:48:37 51°15.989 2°53.587 -999 -999 -999 -999 -999
2008-05-28 06:48:42 51°16.004 2°53.573 -999 -999 -999 -999 -999
2008-05-28 06:48:48 51°16.022 2°53.556 -999 -999 -999 -999 -999
2008-05-28 06:48:53 51°16.037 2°53.543 -999 -999 -999 -999 -999
2008-05-28 06:48:57 51°16.049 2°53.531 -999 -999 -999 -999 -999
2008-05-28 06:49:03 51°16.067 2°53.516 -999 -999 -999 -999 -999
2008-05-28 06:49:08 51°16.082 2°53.502 -999 -999 -999 -999 -999
2008-05-28 06:49:12 51°16.094 2°53.491 -999 -999 -999 -999 -999
2008-05-28 06:49:17 51°16.109 2°53.477 -999 -999 -999 -999 -999
2008-05-28 06:49:23 51°16.127 2°53.462 -999 -999 -999 -999 -999
2008-05-28 06:49:28 51°16.142 2°53.448 -999 -999 -999 -999 -999
2008-05-28 06:49:32 51°16.155 2°53.438 -999 -999 -999 -999 -999
2008-05-28 06:49:37 51°16.17 2°53.425 -999 -999 -999 -999 -999
2008-05-28 06:49:43 51°16.188 2°53.41 -999 -999 -999 -999 -999
2008-05-28 06:49:48 51°16.204 2°53.397 -999 -999 -999 -999 -999
2008-05-28 06:49:52 51°16.216 2°53.387 -999 -999 -999 -999 -999
2008-05-28 06:49:57 51°16.232 2°53.374 -999 -999 -999 -999 -999
2008-05-28 06:50:02 51°16.247 2°53.362 -999 -999 -999 -999 -999
2008-05-28 06:50:08 51°16.265 2°53.346 -999 -999 -999 -999 -999
2008-05-28 06:50:12 51°16.278 2°53.336 -999 -999 -999 -999 -999
2008-05-28 06:50:17 51°16.293 2°53.323 -999 -999 -999 -999 -999
2008-05-28 06:50:22 51°16.309 2°53.309 -999 -999 -999 -999 -999
2008-05-28 06:50:28 51°16.327 2°53.294 -999 -999 -999 -999 -999
2008-05-28 06:50:33 51°16.342 2°53.28 -999 -999 -999 -999 -999
2008-05-28 06:50:37 51°16.355 2°53.27 -999 -999 -999 -999 -999
2008-05-28 06:50:43 51°16.373 2°53.254 -999 -999 -999 -999 -999
2008-05-28 06:50:48 51°16.389 2°53.241 -999 -999 -999 -999 -999
2008-05-28 06:50:52 51°16.401 2°53.23 -999 -999 -999 -999 -999
2008-05-28 06:50:57 51°16.416 2°53.216 -999 -999 -999 -999 -999
2008-05-28 06:51:02 51°16.432 2°53.202 -999 -999 -999 -999 -999
2008-05-28 06:51:08 51°16.45 2°53.185 -999 -999 -999 -999 -999
2008-05-28 06:51:13 51°16.465 2°53.171 -999 -999 -999 -999 -999
2008-05-28 06:51:17 51°16.477 2°53.16 -999 -999 -999 -999 -999
2008-05-28 06:51:23 51°16.495 2°53.143 -999 -999 -999 -999 -999
2008-05-28 06:51:28 51°16.51 2°53.129 -999 -999 -999 -999 -999
2008-05-28 06:51:32 51°16.522 2°53.117 -999 -999 -999 -999 -999
2008-05-28 06:51:37 51°16.537 2°53.103 -999 -999 -999 -999 -999
2008-05-28 06:51:43 51°16.555 2°53.086 -999 -999 -999 -999 -999
2008-05-28 06:51:48 51°16.57 2°53.072 -999 -999 -999 -999 -999
2008-05-28 06:51:52 51°16.582 2°53.061 -999 -999 -999 -999 -999
2008-05-28 06:51:57 51°16.597 2°53.047 -999 -999 -999 -999 -999
2008-05-28 06:52:03 51°16.615 2°53.031 -999 -999 -999 -999 -999
2008-05-28 06:52:08 51°16.631 2°53.018 -999 -999 -999 -999 -999
2008-05-28 06:52:12 51°16.643 2°53.007 -999 -999 -999 -999 -999
2008-05-28 06:52:17 51°16.659 2°52.994 -999 -999 -999 -999 -999
2008-05-28 06:52:22 51°16.674 2°52.98 -999 -999 -999 -999 -999
2008-05-28 06:52:28 51°16.693 2°52.965 -999 -999 -999 -999 -999
2008-05-28 06:52:32 51°16.705 2°52.954 -999 -999 -999 -999 -999
2008-05-28 06:52:37 51°16.721 2°52.941 -999 -999 -999 -999 -999
2008-05-28 06:52:42 51°16.737 2°52.928 -999 -999 -999 -999 -999
2008-05-28 06:52:48 51°16.756 2°52.913 -999 -999 -999 -999 -999
2008-05-28 06:52:53 51°16.771 2°52.9 -999 -999 -999 -999 -999
2008-05-28 06:52:57 51°16.784 2°52.89 -999 -999 -999 -999 -999
2008-05-28 06:53:02 51°16.799 2°52.877 -999 -999 -999 -999 -999
2008-05-28 06:53:08 51°16.818 2°52.861 -999 -999 -999 -999 -999
2008-05-28 06:53:13 51°16.834 2°52.849 -999 -999 -999 -999 -999
2008-05-28 06:53:17 51°16.846 2°52.839 -999 -999 -999 -999 -999
2008-05-28 06:53:23 51°16.865 2°52.823 -999 -999 -999 -999 -999
2008-05-28 06:53:28 51°16.881 2°52.81 -999 -999 -999 -999 -999
2008-05-28 06:53:32 51°16.894 2°52.8 -999 -999 -999 -999 -999
2008-05-28 06:53:37 51°16.909 2°52.787 -999 -999 -999 -999 -999
2008-05-28 06:53:42 51°16.925 2°52.774 -999 -999 -999 -999 -999
2008-05-28 06:53:48 51°16.944 2°52.759 -999 -999 -999 -999 -999
2008-05-28 06:53:52 51°16.957 2°52.748 -999 -999 -999 -999 -999
2008-05-28 06:53:57 51°16.972 2°52.735 -999 -999 -999 -999 -999
2008-05-28 06:54:03 51°16.992 2°52.72 -999 -999 -999 -999 -999
2008-05-28 06:54:08 51°17.008 2°52.707 -999 -999 -999 -999 -999
2008-05-28 06:54:12 51°17.021 2°52.698 -999 -999 -999 -999 -999
2008-05-28 06:54:17 51°17.037 2°52.685 -999 -999 -999 -999 -999
2008-05-28 06:54:23 51°17.056 2°52.671 -999 -999 -999 -999 -999
2008-05-28 06:54:28 51°17.073 2°52.659 -999 -999 -999 -999 -999
2008-05-28 06:54:32 51°17.085 2°52.65 -999 -999 -999 -999 -999
2008-05-28 06:54:37 51°17.102 2°52.638 -999 -999 -999 -999 -999
2008-05-28 06:54:43 51°17.121 2°52.624 -999 -999 -999 -999 -999
2008-05-28 06:54:48 51°17.137 2°52.613 -999 -999 -999 -999 -999
2008-05-28 06:54:52 51°17.15 2°52.603 -999 -999 -999 -999 -999
2008-05-28 06:54:57 51°17.166 2°52.591 -999 -999 -999 -999 -999
2008-05-28 06:55:02 51°17.182 2°52.58 -999 -999 -999 -999 -999
2008-05-28 06:55:07 51°17.198 2°52.567 -999 -999 -999 -999 -999
2008-05-28 06:55:12 51°17.214 2°52.556 -999 -999 -999 -999 -999
2008-05-28 06:55:17 51°17.23 2°52.543 -999 -999 -999 -999 -999
2008-05-28 06:55:22 51°17.247 2°52.533 -999 -999 -999 -999 -999
2008-05-28 06:55:28 51°17.267 2°52.52 -999 -999 -999 -999 -999
2008-05-28 06:55:33 51°17.284 2°52.51 -999 -999 -999 -999 -999
2008-05-28 06:55:37 51°17.297 2°52.502 -999 -999 -999 -999 -999
2008-05-28 06:55:43 51°17.318 2°52.491 -999 -999 -999 -999 -999
2008-05-28 06:55:48 51°17.335 2°52.482 -999 -999 -999 -999 -999
2008-05-28 06:55:53 51°17.352 2°52.473 -999 -999 -999 -999 -999
2008-05-28 06:55:57 51°17.365 2°52.466 -999 -999 -999 -999 -999
2008-05-28 06:56:03 51°17.386 2°52.456 -999 -999 -999 -999 -999
2008-05-28 06:56:08 51°17.403 2°52.447 -999 -999 -999 -999 -999
2008-05-28 06:56:12 51°17.417 2°52.441 -999 -999 -999 -999 -999
2008-05-28 06:56:17 51°17.434 2°52.434 -999 -999 -999 -999 -999
2008-05-28 06:56:23 51°17.455 2°52.425 -999 -999 -999 -999 -999
2008-05-28 06:56:28 51°17.472 2°52.418 -999 -999 -999 -999 -999
2008-05-28 06:56:32 51°17.486 2°52.412 -999 -999 -999 -999 -999
2008-05-28 06:56:37 51°17.503 2°52.404 -999 -999 -999 -999 -999
2008-05-28 06:56:43 51°17.524 2°52.396 -999 -999 -999 -999 -999
2008-05-28 06:56:48 51°17.541 2°52.389 -999 -999 -999 -999 -999
2008-05-28 06:56:52 51°17.555 2°52.385 -999 -999 -999 -999 -999
2008-05-28 06:56:57 51°17.573 2°52.379 -999 -999 -999 -999 -999
2008-05-28 06:57:03 51°17.594 2°52.372 -999 -999 -999 -999 -999
2008-05-28 06:57:08 51°17.612 2°52.368 -999 -999 -999 -999 -999
2008-05-28 06:57:13 51°17.629 2°52.363 -999 -999 -999 -999 -999
2008-05-28 06:57:17 51°17.644 2°52.359 -999 -999 -999 -999 -999
2008-05-28 06:57:22 51°17.661 2°52.354 -999 -999 -999 -999 -999
2008-05-28 06:57:28 51°17.683 2°52.348 -999 -999 -999 -999 -999
2008-05-28 06:57:32 51°17.697 2°52.344 -999 -999 -999 -999 -999
2008-05-28 06:57:37 51°17.715 2°52.339 -999 -999 -999 -999 -999
2008-05-28 06:57:42 51°17.732 2°52.333 -999 -999 -999 -999 -999
2008-05-28 06:57:48 51°17.754 2°52.326 -999 -999 -999 -999 -999
2008-05-28 06:57:53 51°17.771 2°52.321 -999 -999 -999 -999 -999
2008-05-28 06:57:57 51°17.785 2°52.316 -999 -999 -999 -999 -999
2008-05-28 06:58:02 51°17.802 2°52.31 -999 -999 -999 -999 -999
2008-05-28 06:58:08 51°17.823 2°52.304 -999 -999 -999 -999 -999
2008-05-28 06:58:12 51°17.838 2°52.3 -999 -999 -999 -999 -999
2008-05-28 06:58:17 51°17.856 2°52.296 -999 -999 -999 -999 -999
2008-05-28 06:58:23 51°17.877 2°52.291 -999 -999 -999 -999 -999
2008-05-28 06:58:28 51°17.895 2°52.288 -999 -999 -999 -999 -999
2008-05-28 06:58:32 51°17.909 2°52.286 -999 -999 -999 -999 -999
2008-05-28 06:58:38 51°17.931 2°52.283 -999 -999 -999 -999 -999
2008-05-28 06:58:43 51°17.949 2°52.281 -999 -999 -999 -999 -999
2008-05-28 06:58:48 51°17.967 2°52.28 -999 -999 -999 -999 -999
2008-05-28 06:58:52 51°17.982 2°52.278 -999 -999 -999 -999 -999
2008-05-28 06:58:57 51°18 2°52.278 -999 -999 -999 -999 -999
2008-05-28 06:59:03 51°18.022 2°52.277 -999 -999 -999 -999 -999
2008-05-28 06:59:08 51°18.04 2°52.277 -999 -999 -999 -999 -999
2008-05-28 06:59:12 51°18.054 2°52.277 -999 -999 -999 -999 -999
2008-05-28 06:59:17 51°18.073 2°52.276 -999 -999 -999 -999 -999
2008-05-28 06:59:22 51°18.091 2°52.276 -999 -999 -999 -999 -999
2008-05-28 06:59:28 51°18.113 2°52.275 -999 -999 -999 -999 -999
2008-05-28 06:59:32 51°18.128 2°52.275 -999 -999 -999 -999 -999
2008-05-28 06:59:37 51°18.146 2°52.275 -999 -999 -999 -999 -999
2008-05-28 06:59:42 51°18.165 2°52.276 -999 -999 -999 -999 -999
2008-05-28 06:59:48 51°18.186 2°52.277 -999 -999 -999 -999 -999
2008-05-28 06:59:53 51°18.204 2°52.278 -999 -999 -999 -999 -999
2008-05-28 06:59:57 51°18.219 2°52.28 -999 -999 -999 -999 -999
2008-05-28 07:00:03 51°18.241 2°52.281 -999 -999 -999 -999 -999
2008-05-28 07:00:08 51°18.259 2°52.282 -999 -999 -999 -999 -999
2008-05-28 07:00:12 51°18.273 2°52.282 -999 -999 -999 -999 -999
2008-05-28 07:00:17 51°18.292 2°52.283 -999 -999 -999 -999 -999
2008-05-28 07:00:22 51°18.31 2°52.283 -999 -999 -999 -999 -999
2008-05-28 07:00:28 51°18.331 2°52.283 -999 -999 -999 -999 -999
2008-05-28 07:00:32 51°18.346 2°52.283 -999 -999 -999 -999 -999
2008-05-28 07:00:37 51°18.364 2°52.282 -999 -999 -999 -999 -999
2008-05-28 07:00:43 51°18.385 2°52.283 -999 -999 -999 -999 -999
2008-05-28 07:00:48 51°18.403 2°52.284 -999 -999 -999 -999 -999
2008-05-28 07:00:52 51°18.417 2°52.284 -999 -999 -999 -999 -999
2008-05-28 07:00:57 51°18.435 2°52.286 -999 -999 -999 -999 -999
2008-05-28 07:01:03 51°18.457 2°52.288 -999 -999 -999 -999 -999
2008-05-28 07:01:08 51°18.475 2°52.289 -999 -999 -999 -999 -999
2008-05-28 07:01:12 51°18.49 2°52.291 -999 -999 -999 -999 -999
2008-05-28 07:01:17 51°18.508 2°52.293 -999 -999 -999 -999 -999
2008-05-28 07:01:23 51°18.529 2°52.295 -999 -999 -999 -999 -999
2008-05-28 07:01:28 51°18.547 2°52.297 -999 -999 -999 -999 -999
2008-05-28 07:01:32 51°18.562 2°52.299 -999 -999 -999 -999 -999
2008-05-28 07:01:37 51°18.58 2°52.301 -999 -999 -999 -999 -999
2008-05-28 07:01:42 51°18.598 2°52.303 -999 -999 -999 -999 -999
2008-05-28 07:01:48 51°18.62 2°52.304 -999 -999 -999 -999 -999
2008-05-28 07:01:52 51°18.634 2°52.305 -999 -999 -999 -999 -999
2008-05-28 07:01:57 51°18.652 2°52.305 -999 -999 -999 -999 -999
2008-05-28 07:02:02 51°18.67 2°52.305 -999 -999 -999 -999 -999
2008-05-28 07:02:08 51°18.692 2°52.306 -999 -999 -999 -999 -999
2008-05-28 07:02:13 51°18.71 2°52.307 -999 -999 -999 -999 -999
2008-05-28 07:02:17 51°18.725 2°52.308 -999 -999 -999 -999 -999
2008-05-28 07:02:23 51°18.747 2°52.309 -999 -999 -999 -999 -999
2008-05-28 07:02:28 51°18.765 2°52.311 -999 -999 -999 -999 -999
2008-05-28 07:02:32 51°18.78 2°52.313 -999 -999 -999 -999 -999
2008-05-28 07:02:37 51°18.798 2°52.314 -999 -999 -999 -999 -999
2008-05-28 07:02:43 51°18.819 2°52.316 -999 -999 -999 -999 -999
2008-05-28 07:02:48 51°18.837 2°52.318 -999 -999 -999 -999 -999
2008-05-28 07:02:52 51°18.852 2°52.32 -999 -999 -999 -999 -999
2008-05-28 07:02:57 51°18.87 2°52.321 -999 -999 -999 -999 -999
2008-05-28 07:03:03 51°18.892 2°52.324 -999 -999 -999 -999 -999
2008-05-28 07:03:08 51°18.91 2°52.326 -999 -999 -999 -999 -999
2008-05-28 07:03:12 51°18.924 2°52.328 -999 -999 -999 -999 -999
2008-05-28 07:03:17 51°18.942 2°52.328 -999 -999 -999 -999 -999
2008-05-28 07:03:23 51°18.964 2°52.329 -999 -999 -999 -999 -999
2008-05-28 07:03:28 51°18.983 2°52.33 -999 -999 -999 -999 -999
2008-05-28 07:03:32 51°18.997 2°52.331 -999 -999 -999 -999 -999
2008-05-28 07:03:37 51°19.016 2°52.331 -999 -999 -999 -999 -999
2008-05-28 07:03:43 51°19.037 2°52.331 -999 -999 -999 -999 -999
2008-05-28 07:03:48 51°19.056 2°52.332 -999 -999 -999 -999 -999
2008-05-28 07:03:52 51°19.07 2°52.332 -999 -999 -999 -999 -999
2008-05-28 07:03:57 51°19.088 2°52.333 -999 -999 -999 -999 -999
2008-05-28 07:04:02 51°19.107 2°52.334 -999 -999 -999 -999 -999
2008-05-28 07:04:08 51°19.129 2°52.336 -999 -999 -999 -999 -999
2008-05-28 07:04:12 51°19.143 2°52.337 -999 -999 -999 -999 -999
2008-05-28 07:04:17 51°19.162 2°52.338 -999 -999 -999 -999 -999
2008-05-28 07:04:22 51°19.18 2°52.339 -999 -999 -999 -999 -999
2008-05-28 07:04:28 51°19.202 2°52.34 -999 -999 -999 -999 -999
2008-05-28 07:04:33 51°19.221 2°52.34 -999 -999 -999 -999 -999
2008-05-28 07:04:37 51°19.235 2°52.34 -999 -999 -999 -999 -999
2008-05-28 07:04:42 51°19.254 2°52.341 -999 -999 -999 -999 -999
2008-05-28 07:04:48 51°19.276 2°52.342 -999 -999 -999 -999 -999
2008-05-28 07:04:53 51°19.294 2°52.344 -999 -999 -999 -999 -999
2008-05-28 07:04:57 51°19.309 2°52.345 -999 -999 -999 -999 -999
2008-05-28 07:05:03 51°19.331 2°52.347 -999 -999 -999 -999 -999
2008-05-28 07:05:08 51°19.35 2°52.35 -999 -999 -999 -999 -999
2008-05-28 07:05:12 51°19.365 2°52.352 -999 -999 -999 -999 -999
2008-05-28 07:05:18 51°19.387 2°52.355 -999 -999 -999 -999 -999
2008-05-28 07:05:23 51°19.405 2°52.358 -999 -999 -999 -999 -999
2008-05-28 07:05:28 51°19.424 2°52.361 -999 -999 -999 -999 -999
2008-05-28 07:05:32 51°19.438 2°52.363 -999 -999 -999 -999 -999
2008-05-28 07:05:37 51°19.457 2°52.366 -999 -999 -999 -999 -999
2008-05-28 07:05:43 51°19.479 2°52.369 -999 -999 -999 -999 -999
2008-05-28 07:05:48 51°19.497 2°52.373 -999 -999 -999 -999 -999
2008-05-28 07:05:52 51°19.512 2°52.375 -999 -999 -999 -999 -999
2008-05-28 07:05:57 51°19.53 2°52.377 -999 -999 -999 -999 -999
2008-05-28 07:06:02 51°19.549 2°52.379 -999 -999 -999 -999 -999
2008-05-28 07:06:08 51°19.571 2°52.381 -999 -999 -999 -999 -999
2008-05-28 07:06:12 51°19.586 2°52.383 -999 -999 -999 -999 -999
2008-05-28 07:06:17 51°19.605 2°52.385 -999 -999 -999 -999 -999
2008-05-28 07:06:22 51°19.623 2°52.387 -999 -999 -999 -999 -999
2008-05-28 07:06:28 51°19.646 2°52.389 -999 -999 -999 -999 -999
2008-05-28 07:06:33 51°19.664 2°52.39 -999 -999 -999 -999 -999
2008-05-28 07:06:37 51°19.679 2°52.392 -999 -999 -999 -999 -999
2008-05-28 07:06:43 51°19.701 2°52.394 -999 -999 -999 -999 -999
2008-05-28 07:06:48 51°19.72 2°52.396 -999 -999 -999 -999 -999
2008-05-28 07:06:52 51°19.735 2°52.397 -999 -999 -999 -999 -999
2008-05-28 07:06:57 51°19.753 2°52.398 -999 -999 -999 -999 -999
2008-05-28 07:07:02 51°19.772 2°52.401 -999 -999 -999 -999 -999
2008-05-28 07:07:08 51°19.794 2°52.403 -999 -999 -999 -999 -999
2008-05-28 07:07:13 51°19.812 2°52.406 -999 -999 -999 -999 -999
2008-05-28 07:07:17 51°19.827 2°52.409 -999 -999 -999 -999 -999
2008-05-28 07:07:23 51°19.85 2°52.413 -999 -999 -999 -999 -999
2008-05-28 07:07:28 51°19.868 2°52.417 -999 -999 -999 -999 -999
2008-05-28 07:07:32 51°19.883 2°52.419 -999 -999 -999 -999 -999
2008-05-28 07:07:37 51°19.902 2°52.423 -999 -999 -999 -999 -999
2008-05-28 07:07:43 51°19.924 2°52.427 -999 -999 -999 -999 -999
2008-05-28 07:07:48 51°19.942 2°52.43 -999 -999 -999 -999 -999
2008-05-28 07:07:52 51°19.957 2°52.432 6 4 -999 -999 -999
2008-05-28 07:07:57 51°19.976 2°52.435 6.5 2 -999 -999 -999
2008-05-28 07:08:02 51°19.994 2°52.439 7.8 359 -999 -999 -999
2008-05-28 07:08:07 51°20.013 2°52.443 6.9 1 -999 -999 -999
2008-05-28 07:08:12 51°20.031 2°52.447 6.8 360 17.3 -999 75
2008-05-28 07:08:16 51°20.046 2°52.45 7.7 357 17.3 -999 75
2008-05-28 07:08:21 51°20.065 2°52.454 7.4 360 17.5 -999 87
2008-05-28 07:08:26 51°20.083 2°52.46 7.2 2 17.5 -999 87
2008-05-28 07:08:31 51°20.102 2°52.465 8.1 356 17.5 100400 87
2008-05-28 07:08:36 51°20.12 2°52.471 6.8 358 17.5 100400 87
2008-05-28 07:08:40 51°20.134 2°52.475 7.7 358 17.5 100400 87
2008-05-28 07:08:45 51°20.153 2°52.481 8.8 358 17.4 100390 87
2008-05-28 07:08:50 51°20.171 2°52.487 8.8 2 17.4 100390 87
2008-05-28 07:08:54 51°20.185 2°52.492 7.8 -999 17.4 100390 87
2008-05-28 07:08:59 51°20.204 2°52.497 7.8 3 17.4 100400 87
2008-05-28 07:09:04 51°20.221 2°52.503 8.2 1 17.4 100400 87
2008-05-28 07:09:09 51°20.24 2°52.509 7.3 2 17.4 100390 88
2008-05-28 07:09:14 51°20.258 2°52.514 9.1 359 17.4 100390 88
2008-05-28 07:09:19 51°20.276 2°52.519 8.2 2 17.4 100400 88
2008-05-28 07:09:24 51°20.294 2°52.524 8.8 -999 17.4 100400 88
2008-05-28 07:09:29 51°20.313 2°52.53 7.6 -999 17.4 100400 88
2008-05-28 07:09:34 51°20.331 2°52.535 7.7 2 17.4 100400 88
2008-05-28 07:09:39 51°20.349 2°52.541 8.3 359 17.4 100380 88
2008-05-28 07:09:44 51°20.367 2°52.546 8.4 1 17.4 100380 88
2008-05-28 07:09:49 51°20.385 2°52.552 8.9 -999 17.4 100380 88
2008-05-28 07:09:54 51°20.403 2°52.557 8.7 360 17.4 100380 88
2008-05-28 07:09:59 51°20.421 2°52.564 8 360 17.4 100390 89
2008-05-28 07:10:04 51°20.439 2°52.57 8.8 359 17.4 100390 89
2008-05-28 07:10:09 51°20.457 2°52.576 8.7 358 17.4 100390 89
2008-05-28 07:10:14 51°20.475 2°52.582 8.3 2 17.4 100390 89
2008-05-28 07:10:19 51°20.493 2°52.588 8.3 359 17.4 100380 89
2008-05-28 07:10:24 51°20.511 2°52.594 8.4 -999 17.4 100380 89
2008-05-28 07:10:29 51°20.529 2°52.6 8 -999 17.4 100390 89
2008-05-28 07:10:34 51°20.547 2°52.605 9.3 359 17.4 100390 89
2008-05-28 07:10:39 51°20.565 2°52.61 7.3 360 17.3 100390 89
2008-05-28 07:10:44 51°20.583 2°52.614 7.7 4 17.3 100390 89
2008-05-28 07:10:49 51°20.601 2°52.618 8.5 3 17.3 100400 89
2008-05-28 07:10:54 51°20.619 2°52.621 6.8 4 17.3 100400 89
2008-05-28 07:10:59 51°20.637 2°52.625 6 6 17.4 100380 89
2008-05-28 07:11:04 51°20.655 2°52.628 8 3 17.4 100380 89
2008-05-28 07:11:09 51°20.673 2°52.631 7.4 5 17.3 100380 89
2008-05-28 07:11:14 51°20.691 2°52.633 7.5 4 17.3 100380 89
2008-05-28 07:11:19 51°20.71 2°52.636 7.5 3 17.3 100370 89
2008-05-28 07:11:24 51°20.728 2°52.639 7.4 1 17.3 100370 89
2008-05-28 07:11:29 51°20.746 2°52.641 6.8 6 17.3 100390 89
2008-05-28 07:11:34 51°20.765 2°52.644 7.6 4 17.3 100390 89
2008-05-28 07:11:39 51°20.783 2°52.646 6.9 5 17.3 100390 89
2008-05-28 07:11:44 51°20.801 2°52.649 8.3 4 17.3 100390 89
2008-05-28 07:11:49 51°20.819 2°52.652 7.7 3 17.3 100390 89
2008-05-28 07:11:54 51°20.837 2°52.656 7.4 4 17.3 100380 89
2008-05-28 07:11:59 51°20.855 2°52.66 7.9 4 17.3 100390 89
2008-05-28 07:12:04 51°20.873 2°52.663 6.7 5 17.3 100390 89
2008-05-28 07:12:09 51°20.891 2°52.666 7.2 2 17.3 100390 89
2008-05-28 07:12:14 51°20.909 2°52.669 6.4 4 17.3 100390 89
2008-05-28 07:12:19 51°20.927 2°52.672 7.8 7 17.3 100370 89
2008-05-28 07:12:24 51°20.946 2°52.674 7.9 6 17.3 100370 89
2008-05-28 07:12:29 51°20.964 2°52.676 6.9 6 17.3 100380 89
2008-05-28 07:12:34 51°20.982 2°52.678 7.6 4 17.3 100380 89
2008-05-28 07:12:40 51°21.003 2°52.679 8 8 17.3 100390 89
2008-05-28 07:12:44 51°21.018 2°52.68 7.1 7 17.3 100390 89
2008-05-28 07:12:49 51°21.036 2°52.681 6.6 7 17.3 100380 89
2008-05-28 07:12:54 51°21.054 2°52.682 6.9 7 17.3 100380 89
2008-05-28 07:12:59 51°21.072 2°52.683 7.5 7 17.3 100390 89
2008-05-28 07:13:04 51°21.09 2°52.685 6.6 5 17.3 100390 89
2008-05-28 07:13:09 51°21.108 2°52.687 7.9 7 17.3 100380 89
2008-05-28 07:13:14 51°21.126 2°52.689 7.3 8 17.3 100380 89
2008-05-28 07:13:19 51°21.145 2°52.692 8.1 7 17.3 100380 89
2008-05-28 07:13:24 51°21.163 2°52.694 7.2 7 17.3 100380 89
2008-05-28 07:13:29 51°21.181 2°52.696 7.9 7 17.3 100370 89
2008-05-28 07:13:34 51°21.199 2°52.699 7.2 7 17.3 100370 89
2008-05-28 07:13:39 51°21.218 2°52.701 8.3 7 17.3 100370 89
2008-05-28 07:13:44 51°21.236 2°52.703 7.6 7 17.3 100370 89
2008-05-28 07:13:49 51°21.254 2°52.705 8.2 9 17.3 100370 89
2008-05-28 07:13:54 51°21.272 2°52.707 6.7 5 17.3 100370 89
2008-05-28 07:13:59 51°21.291 2°52.709 7.4 6 17.3 100380 89
2008-05-28 07:14:04 51°21.309 2°52.711 7.6 6 17.3 100380 89
2008-05-28 07:14:09 51°21.327 2°52.714 7.3 8 17.3 100380 89
2008-05-28 07:14:14 51°21.346 2°52.716 6.2 6 17.3 100380 89
2008-05-28 07:14:19 51°21.364 2°52.719 7 6 17.3 100380 89
2008-05-28 07:14:24 51°21.382 2°52.721 7.2 7 17.3 100380 89
2008-05-28 07:14:29 51°21.401 2°52.723 6.8 5 17.3 100390 88
2008-05-28 07:14:34 51°21.419 2°52.726 6.5 5 17.3 100390 88
2008-05-28 07:14:39 51°21.437 2°52.729 7.6 2 17.3 100390 88
2008-05-28 07:14:44 51°21.455 2°52.731 6.6 5 17.3 100390 88
2008-05-28 07:14:49 51°21.474 2°52.733 6.1 5 17.3 100390 88
2008-05-28 07:14:54 51°21.492 2°52.734 7 5 17.3 100390 88
2008-05-28 07:14:59 51°21.51 2°52.736 7.2 7 17.3 100380 88
2008-05-28 07:15:04 51°21.528 2°52.738 7.2 7 17.3 100380 88
2008-05-28 07:15:09 51°21.546 2°52.739 6.6 6 17.3 100390 88
2008-05-28 07:15:14 51°21.565 2°52.741 7.2 6 17.3 100390 88
2008-05-28 07:15:20 51°21.587 2°52.743 7.3 7 17.3 100390 88
2008-05-28 07:15:24 51°21.602 2°52.744 7.2 6 17.3 100390 88
2008-05-28 07:15:29 51°21.62 2°52.746 6.8 8 17.3 100390 88
2008-05-28 07:15:34 51°21.638 2°52.747 7.4 6 17.3 100390 88
2008-05-28 07:15:39 51°21.657 2°52.749 7.7 6 17.3 100390 88
2008-05-28 07:15:44 51°21.675 2°52.752 7.1 10 17.3 100390 88
2008-05-28 07:15:49 51°21.693 2°52.754 7.1 6 17.2 100390 88
2008-05-28 07:15:54 51°21.712 2°52.756 7.2 6 17.2 100390 88
2008-05-28 07:15:59 51°21.73 2°52.759 7.4 7 17.2 100390 89
2008-05-28 07:16:04 51°21.749 2°52.762 7.3 6 17.2 100390 89
2008-05-28 07:16:09 51°21.767 2°52.764 6.1 7 17.3 100400 89
2008-05-28 07:16:14 51°21.786 2°52.767 5.7 6 17.3 100400 89
2008-05-28 07:16:19 51°21.804 2°52.769 6.5 7 17.2 100390 89
2008-05-28 07:16:24 51°21.822 2°52.772 7.4 11 17.2 100390 89
2008-05-28 07:16:29 51°21.841 2°52.774 7 8 17.2 100390 89
2008-05-28 07:16:34 51°21.859 2°52.776 7.1 8 17.2 100390 89
2008-05-28 07:16:39 51°21.877 2°52.777 6.5 7 17.2 100380 89
2008-05-28 07:16:44 51°21.896 2°52.779 7.4 7 17.2 100380 89
2008-05-28 07:16:49 51°21.914 2°52.78 6.9 7 17.2 100390 89
2008-05-28 07:16:54 51°21.933 2°52.782 7 8 17.2 100390 89
2008-05-28 07:16:59 51°21.952 2°52.785 6.6 7 17.2 100380 89
2008-05-28 07:17:04 51°21.97 2°52.787 7.4 8 17.2 100380 89
2008-05-28 07:17:09 51°21.989 2°52.79 6.2 7 17.2 100380 89
2008-05-28 07:17:14 51°22.007 2°52.793 6.8 8 17.2 100380 89
2008-05-28 07:17:19 51°22.026 2°52.796 7.4 7 17.2 100380 89
2008-05-28 07:17:24 51°22.044 2°52.798 6.2 5 17.2 100380 89
2008-05-28 07:17:29 51°22.063 2°52.801 6.6 8 17.2 100380 89
2008-05-28 07:17:34 51°22.081 2°52.804 6.9 6 17.2 100380 89
2008-05-28 07:17:40 51°22.104 2°52.806 6.8 7 17.2 100390 89
2008-05-28 07:17:44 51°22.119 2°52.808 6.1 8 17.2 100390 89
2008-05-28 07:17:49 51°22.137 2°52.81 6.4 8 17.2 100390 89
2008-05-28 07:17:54 51°22.156 2°52.813 6.5 11 17.2 100390 89
2008-05-28 07:17:59 51°22.174 2°52.815 6.6 9 17.2 100400 89
2008-05-28 07:18:04 51°22.192 2°52.817 5.8 6 17.2 100400 89
2008-05-28 07:18:09 51°22.211 2°52.819 5.8 8 17.2 100380 89
2008-05-28 07:18:14 51°22.229 2°52.821 5.6 6 17.2 100380 89
2008-05-28 07:18:19 51°22.248 2°52.824 6.8 8 17.2 100400 89
2008-05-28 07:18:24 51°22.266 2°52.826 5 2 17.2 100400 89
2008-05-28 07:18:29 51°22.284 2°52.828 6.3 8 17.2 100400 89
2008-05-28 07:18:34 51°22.302 2°52.831 5.5 5 17.2 100400 89
2008-05-28 07:18:39 51°22.321 2°52.833 4.8 6 17.2 100400 89
2008-05-28 07:18:44 51°22.339 2°52.835 5.3 6 17.2 100400 89
2008-05-28 07:18:49 51°22.358 2°52.837 5 4 17.1 100390 89
2008-05-28 07:18:54 51°22.376 2°52.839 5.8 4 17.1 100390 89
2008-05-28 07:18:59 51°22.395 2°52.841 6 3 17.1 100390 89
2008-05-28 07:19:04 51°22.413 2°52.844 5.1 6 17.1 100390 89
2008-05-28 07:19:09 51°22.432 2°52.846 6.5 8 17.1 100390 89
2008-05-28 07:19:14 51°22.45 2°52.848 4.9 5 17.1 100390 89
2008-05-28 07:19:19 51°22.469 2°52.851 6.5 4 17.1 100390 89
2008-05-28 07:19:24 51°22.488 2°52.853 5.6 7 17.1 100390 89
2008-05-28 07:19:29 51°22.506 2°52.856 5.8 6 17.1 100400 89
2008-05-28 07:19:34 51°22.524 2°52.859 6.1 5 17.1 100400 89
2008-05-28 07:19:40 51°22.546 2°52.863 5.6 3 17.1 100390 89
2008-05-28 07:19:44 51°22.561 2°52.865 4.9 5 17.1 100390 89
2008-05-28 07:19:49 51°22.58 2°52.868 6.3 4 17.1 100410 89
2008-05-28 07:19:54 51°22.598 2°52.87 5.3 2 17.1 100410 89
2008-05-28 07:19:59 51°22.617 2°52.873 5.3 4 17.1 100400 89
2008-05-28 07:20:04 51°22.636 2°52.875 5.2 6 17.1 100400 89
2008-05-28 07:20:09 51°22.654 2°52.878 5.1 7 17.1 100400 89
2008-05-28 07:20:14 51°22.673 2°52.881 5.8 6 17.1 100400 89
2008-05-28 07:20:19 51°22.692 2°52.884 6.2 3 17.1 100400 89
2008-05-28 07:20:24 51°22.71 2°52.887 5.8 6 17.1 100400 89
2008-05-28 07:20:29 51°22.729 2°52.89 5.3 8 17.1 100400 89
2008-05-28 07:20:34 51°22.748 2°52.893 5.9 7 17.1 100400 89
2008-05-28 07:20:39 51°22.766 2°52.896 5.6 8 17.1 100390 89
2008-05-28 07:20:44 51°22.785 2°52.898 5.2 4 17.1 100390 89
2008-05-28 07:20:49 51°22.804 2°52.901 5.9 10 17.1 100400 89
2008-05-28 07:20:54 51°22.822 2°52.903 6.2 8 17.1 100400 89
2008-05-28 07:20:59 51°22.84 2°52.905 5.4 10 17 100390 90
2008-05-28 07:21:04 51°22.859 2°52.908 6.5 8 17 100390 90
2008-05-28 07:21:09 51°22.877 2°52.911 6.4 6 17.1 100390 89
2008-05-28 07:21:14 51°22.896 2°52.914 6.2 10 17.1 100390 89
2008-05-28 07:21:19 51°22.915 2°52.917 6.3 10 17.1 100410 89
2008-05-28 07:21:24 51°22.933 2°52.919 5.7 8 17.1 100410 89
2008-05-28 07:21:29 51°22.952 2°52.922 6.4 10 17.1 100400 89
2008-05-28 07:21:34 51°22.97 2°52.923 5.3 4 17.1 100400 89
2008-05-28 07:21:39 51°22.989 2°52.926 6.6 8 17 100400 89
2008-05-28 07:21:44 51°23.007 2°52.928 6.2 7 17 100400 89
2008-05-28 07:21:49 51°23.025 2°52.93 6.3 7 17 100400 89
2008-05-28 07:21:54 51°23.044 2°52.934 6.4 8 17 100400 89
2008-05-28 07:21:59 51°23.062 2°52.937 5.5 7 17.1 100400 89
2008-05-28 07:22:04 51°23.081 2°52.94 7.3 5 17.1 100400 89
2008-05-28 07:22:09 51°23.1 2°52.943 6.9 12 17 100400 89
2008-05-28 07:22:14 51°23.118 2°52.946 6.1 7 17 100400 89
2008-05-28 07:22:19 51°23.137 2°52.948 5.9 5 17.1 100380 89
2008-05-28 07:22:24 51°23.156 2°52.951 7.4 8 17.1 100380 89
2008-05-28 07:22:29 51°23.174 2°52.954 6.9 7 17.1 100400 89
2008-05-28 07:22:34 51°23.193 2°52.956 6.2 8 17.1 100400 89
2008-05-28 07:22:39 51°23.212 2°52.958 6.7 5 17.1 100410 89
2008-05-28 07:22:44 51°23.23 2°52.96 7.2 8 17.1 100410 89
2008-05-28 07:22:49 51°23.249 2°52.962 6.9 10 17 100400 89
2008-05-28 07:22:54 51°23.268 2°52.964 7 10 17 100400 89
2008-05-28 07:22:59 51°23.286 2°52.966 7.8 15 17 100410 89
2008-05-28 07:23:04 51°23.305 2°52.968 7.4 13 17 100410 89
2008-05-28 07:23:09 51°23.324 2°52.97 6.8 10 17.1 100400 89
2008-05-28 07:23:14 51°23.342 2°52.972 6.5 8 17.1 100400 89
2008-05-28 07:23:19 51°23.361 2°52.975 7.3 10 17.1 100410 89
2008-05-28 07:23:24 51°23.379 2°52.977 6.8 9 17.1 100410 89
2008-05-28 07:23:29 51°23.398 2°52.98 7.2 12 17.1 100400 89
2008-05-28 07:23:34 51°23.417 2°52.982 8.4 12 17.1 100400 89
2008-05-28 07:23:39 51°23.436 2°52.985 7.4 8 17 100420 89
2008-05-28 07:23:44 51°23.454 2°52.988 8.1 9 17 100420 89
2008-05-28 07:23:49 51°23.473 2°52.992 7 12 17.1 100400 89
2008-05-28 07:23:54 51°23.492 2°52.996 6.7 8 17.1 100400 89
2008-05-28 07:23:59 51°23.511 2°52.999 7 11 17.1 100400 89
2008-05-28 07:24:04 51°23.529 2°53.004 8 11 17.1 100400 89
2008-05-28 07:24:09 51°23.548 2°53.008 7.4 10 17.1 100400 89
2008-05-28 07:24:14 51°23.566 2°53.011 7.6 12 17.1 100400 89
2008-05-28 07:24:20 51°23.589 2°53.015 7.2 10 17.1 100400 89
2008-05-28 07:24:24 51°23.604 2°53.018 7.1 11 17.1 100400 89
2008-05-28 07:24:29 51°23.622 2°53.021 7.7 13 17.1 100420 89
2008-05-28 07:24:34 51°23.641 2°53.023 7.3 11 17.1 100420 89
2008-05-28 07:24:39 51°23.66 2°53.026 7.6 9 17.1 100410 89
2008-05-28 07:24:44 51°23.679 2°53.029 7.3 14 17.1 100410 89
2008-05-28 07:24:49 51°23.697 2°53.031 7.8 13 17.1 100410 89
2008-05-28 07:24:54 51°23.716 2°53.033 7.2 13 17.1 100410 89
2008-05-28 07:24:59 51°23.735 2°53.036 8.2 8 17.1 100420 89
2008-05-28 07:25:04 51°23.754 2°53.039 7.3 12 17.1 100420 89
2008-05-28 07:25:09 51°23.772 2°53.041 7.9 17 17.1 100410 89
2008-05-28 07:25:14 51°23.791 2°53.044 8.1 12 17.1 100410 89
2008-05-28 07:25:19 51°23.81 2°53.047 8.4 10 17.1 100420 88
2008-05-28 07:25:24 51°23.829 2°53.05 8.5 11 17.1 100420 88
2008-05-28 07:25:29 51°23.848 2°53.053 8 9 17.1 100420 88
2008-05-28 07:25:34 51°23.867 2°53.057 7.5 8 17.1 100420 88
2008-05-28 07:25:39 51°23.886 2°53.06 8.2 11 17.1 100410 88
2008-05-28 07:25:44 51°23.905 2°53.064 7.7 13 17.1 100410 88
2008-05-28 07:25:49 51°23.923 2°53.068 8 12 17.1 100410 88
2008-05-28 07:25:54 51°23.942 2°53.072 7.2 14 17.1 100410 88
2008-05-28 07:25:59 51°23.961 2°53.075 7.4 16 17.1 100420 88
2008-05-28 07:26:04 51°23.98 2°53.079 7.5 8 17.1 100420 88
2008-05-28 07:26:09 51°23.999 2°53.082 7.2 13 17.1 100420 88
2008-05-28 07:26:14 51°24.017 2°53.085 7.8 15 17.1 100420 88
2008-05-28 07:26:20 51°24.04 2°53.088 6.9 14 17.1 100420 88
2008-05-28 07:26:24 51°24.055 2°53.09 7.1 15 17.1 100420 88
2008-05-28 07:26:29 51°24.073 2°53.093 8 14 17.1 100400 88
2008-05-28 07:26:34 51°24.092 2°53.096 6.7 8 17.1 100400 88
2008-05-28 07:26:39 51°24.111 2°53.098 6.4 15 17.2 100400 88
2008-05-28 07:26:44 51°24.13 2°53.1 6.7 17 17.2 100400 88
2008-05-28 07:26:49 51°24.149 2°53.103 6.9 12 17.2 100400 88
2008-05-28 07:26:54 51°24.168 2°53.105 7 12 17.2 100400 88
2008-05-28 07:26:59 51°24.186 2°53.107 7.1 16 17.2 100410 88
2008-05-28 07:27:04 51°24.204 2°53.11 7.2 18 17.2 100410 88
2008-05-28 07:27:09 51°24.223 2°53.113 7.5 13 17.2 100410 88
2008-05-28 07:27:14 51°24.242 2°53.116 7.2 12 17.2 100410 88
2008-05-28 07:27:19 51°24.26 2°53.119 7.2 16 17.2 100420 88
2008-05-28 07:27:24 51°24.279 2°53.122 7.7 12 17.2 100420 88
2008-05-28 07:27:29 51°24.297 2°53.125 6.9 12 17.2 100400 88
2008-05-28 07:27:34 51°24.316 2°53.128 7.5 13 17.2 100400 88
2008-05-28 07:27:39 51°24.334 2°53.131 6.7 16 17.2 100410 87
2008-05-28 07:27:44 51°24.353 2°53.134 7 14 17.2 100410 87
2008-05-28 07:27:49 51°24.372 2°53.137 7.1 14 17.2 100410 87
2008-05-28 07:27:54 51°24.391 2°53.139 6.9 15 17.2 100410 87
2008-05-28 07:27:59 51°24.409 2°53.142 6.5 12 17.2 100420 87
2008-05-28 07:28:04 51°24.428 2°53.145 7.9 16 17.2 100420 87
2008-05-28 07:28:09 51°24.447 2°53.148 7.3 13 17.2 100410 87
2008-05-28 07:28:14 51°24.465 2°53.151 7.1 11 17.2 100410 87
2008-05-28 07:28:19 51°24.484 2°53.154 7.9 10 17.2 100420 87
2008-05-28 07:28:24 51°24.503 2°53.158 7.6 13 17.2 100420 87
2008-05-28 07:28:29 51°24.521 2°53.16 7.4 8 17.2 100410 87
2008-05-28 07:28:34 51°24.54 2°53.163 6.9 17 17.2 100410 87
2008-05-28 07:28:39 51°24.559 2°53.166 6.7 11 17.3 100410 87
2008-05-28 07:28:44 51°24.577 2°53.168 7 11 17.3 100410 87
2008-05-28 07:28:49 51°24.596 2°53.17 7.2 8 17.3 100410 87
2008-05-28 07:28:54 51°24.614 2°53.171 6.6 15 17.3 100410 87
2008-05-28 07:29:00 51°24.636 2°53.172 6.5 14 17.3 100420 87
2008-05-28 07:29:04 51°24.651 2°53.174 7.2 13 17.3 100420 87
2008-05-28 07:29:09 51°24.669 2°53.175 6.5 16 17.3 100410 87
2008-05-28 07:29:14 51°24.688 2°53.177 6.8 14 17.3 100410 87
2008-05-28 07:29:19 51°24.706 2°53.178 5.7 14 17.3 100420 87
2008-05-28 07:29:24 51°24.724 2°53.179 6.9 12 17.3 100420 87
2008-05-28 07:29:29 51°24.742 2°53.181 6.5 11 17.3 100410 87
2008-05-28 07:29:34 51°24.761 2°53.183 6.5 14 17.3 100410 87
2008-05-28 07:29:39 51°24.779 2°53.184 7.3 16 17.3 100420 87
2008-05-28 07:29:44 51°24.797 2°53.186 6.7 12 17.3 100420 87
2008-05-28 07:29:49 51°24.815 2°53.187 7.6 13 17.3 100400 87
2008-05-28 07:29:54 51°24.834 2°53.189 6.3 13 17.3 100400 87
2008-05-28 07:29:59 51°24.852 2°53.191 6.8 12 17.3 100410 87
2008-05-28 07:30:04 51°24.87 2°53.192 7.2 13 17.3 100410 87
2008-05-28 07:30:09 51°24.889 2°53.193 6.2 10 17.3 100410 87
2008-05-28 07:30:14 51°24.907 2°53.195 6.9 10 17.3 100410 87
2008-05-28 07:30:19 51°24.926 2°53.197 7 13 17.3 100430 86
2008-05-28 07:30:24 51°24.944 2°53.199 7.1 11 17.3 100430 86
2008-05-28 07:30:29 51°24.963 2°53.201 6.2 10 17.3 100420 86
2008-05-28 07:30:34 51°24.981 2°53.202 6.7 10 17.3 100420 86
2008-05-28 07:30:39 51°25 2°53.203 6.9 14 17.3 100420 86
2008-05-28 07:30:44 51°25.018 2°53.203 6.2 14 17.3 100420 86
2008-05-28 07:30:49 51°25.037 2°53.204 6.7 21 17.3 100420 86
2008-05-28 07:30:54 51°25.055 2°53.204 6.6 17 17.3 100420 86
2008-05-28 07:31:00 51°25.077 2°53.204 6.8 17 17.3 100410 86
2008-05-28 07:31:04 51°25.092 2°53.205 6.3 14 17.3 100410 86
2008-05-28 07:31:09 51°25.11 2°53.205 6.3 19 17.3 100420 86
2008-05-28 07:31:14 51°25.128 2°53.205 5.6 17 17.3 100420 86
2008-05-28 07:31:19 51°25.147 2°53.206 6 15 17.3 100420 86
2008-05-28 07:31:24 51°25.165 2°53.207 6.5 15 17.3 100420 86
2008-05-28 07:31:29 51°25.183 2°53.208 6.4 14 17.3 100430 86
2008-05-28 07:31:34 51°25.202 2°53.209 6.5 14 17.3 100430 86
2008-05-28 07:31:39 51°25.22 2°53.211 6.4 12 17.3 100430 86
2008-05-28 07:31:44 51°25.238 2°53.213 6.8 12 17.3 100430 86
2008-05-28 07:31:49 51°25.257 2°53.215 7.1 11 17.3 100420 86
2008-05-28 07:31:54 51°25.275 2°53.218 6.9 10 17.3 100420 86
2008-05-28 07:31:59 51°25.293 2°53.221 7.2 12 17.3 100420 86
2008-05-28 07:32:04 51°25.312 2°53.224 7.6 13 17.3 100420 86
2008-05-28 07:32:09 51°25.33 2°53.227 6.9 11 17.3 100420 86
2008-05-28 07:32:14 51°25.348 2°53.229 7.5 12 17.3 100420 86
2008-05-28 07:32:19 51°25.367 2°53.232 7.5 11 17.3 100420 86
2008-05-28 07:32:24 51°25.385 2°53.235 7.4 13 17.3 100420 86
2008-05-28 07:32:29 51°25.404 2°53.237 6.7 14 17.3 100420 86
2008-05-28 07:32:34 51°25.422 2°53.24 7.3 9 17.3 100420 86
2008-05-28 07:32:39 51°25.441 2°53.243 7.4 14 17.3 100420 86
2008-05-28 07:32:44 51°25.459 2°53.245 7.2 16 17.3 100420 86
2008-05-28 07:32:49 51°25.478 2°53.248 7.2 10 17.3 100430 86
2008-05-28 07:32:54 51°25.497 2°53.251 6.7 11 17.3 100430 86
2008-05-28 07:33:00 51°25.519 2°53.254 6.8 12 17.3 100430 86
2008-05-28 07:33:04 51°25.533 2°53.256 6.2 11 17.3 100430 86
2008-05-28 07:33:09 51°25.552 2°53.259 6.2 9 17.3 100420 86
2008-05-28 07:33:14 51°25.571 2°53.262 5.9 10 17.3 100420 86
2008-05-28 07:33:19 51°25.589 2°53.264 6.2 9 17.3 100430 86
2008-05-28 07:33:24 51°25.608 2°53.267 6.2 12 17.3 100430 86
2008-05-28 07:33:29 51°25.626 2°53.269 5.9 9 17.3 100430 86
2008-05-28 07:33:34 51°25.645 2°53.271 6.2 11 17.3 100430 86
2008-05-28 07:33:39 51°25.663 2°53.272 5.8 12 17.3 100430 86
2008-05-28 07:33:44 51°25.682 2°53.274 6.4 18 17.3 100430 86
2008-05-28 07:33:49 51°25.7 2°53.275 6.8 14 17.3 100430 86
2008-05-28 07:33:54 51°25.719 2°53.277 6.7 14 17.3 100430 86
2008-05-28 07:33:59 51°25.737 2°53.279 6.1 12 17.3 100420 86
2008-05-28 07:34:04 51°25.755 2°53.28 6.4 8 17.3 100420 86
2008-05-28 07:34:09 51°25.774 2°53.281 6.1 11 17.3 100410 86
2008-05-28 07:34:14 51°25.792 2°53.283 6.8 11 17.3 100410 86
2008-05-28 07:34:19 51°25.811 2°53.286 6.3 13 17.3 100410 86
2008-05-28 07:34:24 51°25.829 2°53.287 5.9 10 17.3 100410 86
2008-05-28 07:34:29 51°25.848 2°53.291 5.9 9 17.2 100420 86
2008-05-28 07:34:34 51°25.867 2°53.293 6.9 10 17.2 100420 86
2008-05-28 07:34:39 51°25.885 2°53.296 6.5 8 17.2 100420 86
2008-05-28 07:34:44 51°25.904 2°53.299 5.6 6 17.2 100420 86
2008-05-28 07:34:49 51°25.923 2°53.303 5.2 5 17.2 100420 86
2008-05-28 07:34:54 51°25.942 2°53.305 5.8 10 17.2 100420 86
2008-05-28 07:34:59 51°25.961 2°53.309 6.9 10 17.2 100420 86
2008-05-28 07:35:04 51°25.979 2°53.311 5.8 12 17.2 100420 86
2008-05-28 07:35:09 51°25.998 2°53.314 6.6 17 17.2 100420 86
2008-05-28 07:35:15 51°26.021 2°53.317 5.3 9 17.2 100420 86
2008-05-28 07:35:19 51°26.035 2°53.318 6.6 13 17.2 100420 86
2008-05-28 07:35:24 51°26.054 2°53.32 5.9 12 17.2 100420 86
2008-05-28 07:35:29 51°26.073 2°53.322 7.5 10 17.2 100420 86
2008-05-28 07:35:34 51°26.091 2°53.324 6.4 6 17.2 100420 86
2008-05-28 07:35:40 51°26.114 2°53.327 6.1 10 17.2 100420 86
2008-05-28 07:35:44 51°26.129 2°53.329 4.7 10 17.2 100420 86
2008-05-28 07:35:49 51°26.147 2°53.331 5.1 6 17.2 100420 86
2008-05-28 07:35:54 51°26.166 2°53.333 4.7 7 17.2 100420 86
2008-05-28 07:35:59 51°26.184 2°53.334 6.8 12 17.2 100410 86
2008-05-28 07:36:04 51°26.203 2°53.335 5 11 17.2 100410 86
2008-05-28 07:36:09 51°26.222 2°53.336 5.9 14 17.2 100420 86
2008-05-28 07:36:14 51°26.241 2°53.338 5 14 17.2 100420 86
2008-05-28 07:36:19 51°26.259 2°53.34 5.6 13 17.2 100430 86
2008-05-28 07:36:24 51°26.278 2°53.343 5.6 9 17.2 100430 86
2008-05-28 07:36:29 51°26.296 2°53.344 6.6 10 17.2 100420 86
2008-05-28 07:36:34 51°26.315 2°53.346 5.5 11 17.2 100420 86
2008-05-28 07:36:39 51°26.334 2°53.348 5.1 4 17.2 100430 86
2008-05-28 07:36:44 51°26.352 2°53.349 5.8 17 17.2 100430 86
2008-05-28 07:36:49 51°26.371 2°53.351 6.3 9 17.2 100420 86
2008-05-28 07:36:54 51°26.389 2°53.353 6.3 8 17.2 100420 86
2008-05-28 07:36:59 51°26.407 2°53.356 5.8 9 17.2 100420 86
2008-05-28 07:37:04 51°26.425 2°53.359 6.3 10 17.2 100420 86
2008-05-28 07:37:09 51°26.444 2°53.361 6.2 8 17.2 100440 86
2008-05-28 07:37:14 51°26.462 2°53.364 5.3 9 17.2 100440 86
2008-05-28 07:37:19 51°26.481 2°53.366 4.6 7 17.2 100410 86
2008-05-28 07:37:24 51°26.499 2°53.368 5.5 12 17.2 100410 86
2008-05-28 07:37:29 51°26.518 2°53.37 6.8 11 17.2 100420 86
2008-05-28 07:37:34 51°26.537 2°53.372 5.7 9 17.2 100420 86
2008-05-28 07:37:40 51°26.559 2°53.375 6 10 17.1 100410 86
2008-05-28 07:37:44 51°26.574 2°53.377 6.1 11 17.1 100410 86
2008-05-28 07:37:49 51°26.592 2°53.379 5.4 10 17.2 100430 86
2008-05-28 07:37:54 51°26.61 2°53.382 6.4 11 17.2 100430 86
2008-05-28 07:37:59 51°26.629 2°53.384 6 12 17.2 100430 86
2008-05-28 07:38:04 51°26.647 2°53.387 5.1 8 17.2 100430 86
2008-05-28 07:38:09 51°26.666 2°53.39 5.4 12 17.2 100430 86
2008-05-28 07:38:14 51°26.684 2°53.392 4.6 7 17.2 100430 86
2008-05-28 07:38:19 51°26.703 2°53.395 6.6 9 17.1 100430 86
2008-05-28 07:38:24 51°26.721 2°53.397 6.2 11 17.1 100430 86
2008-05-28 07:38:29 51°26.739 2°53.4 4.9 7 17.1 100420 86
2008-05-28 07:38:34 51°26.758 2°53.403 5.4 7 17.1 100420 86
2008-05-28 07:38:39 51°26.777 2°53.406 6.1 7 17.1 100420 86
2008-05-28 07:38:44 51°26.795 2°53.408 5.3 5 17.1 100420 86
2008-05-28 07:38:49 51°26.813 2°53.411 5.6 10 17.1 100430 86
2008-05-28 07:38:54 51°26.832 2°53.413 5.8 9 17.1 100430 86
2008-05-28 07:38:59 51°26.851 2°53.415 5.6 11 17.1 100420 86
2008-05-28 07:39:04 51°26.869 2°53.417 5.7 9 17.1 100420 86
2008-05-28 07:39:09 51°26.888 2°53.419 5 9 17.1 100420 86
2008-05-28 07:39:14 51°26.906 2°53.42 5.3 8 17.1 100420 86
2008-05-28 07:39:19 51°26.925 2°53.422 4.9 7 17.1 100420 86
2008-05-28 07:39:24 51°26.943 2°53.423 6 9 17.1 100420 86
2008-05-28 07:39:29 51°26.962 2°53.426 5.3 2 17.1 100420 86
2008-05-28 07:39:34 51°26.981 2°53.427 5.1 11 17.1 100420 86
2008-05-28 07:39:40 51°27.002 2°53.429 5.5 7 17.1 100420 86
2008-05-28 07:39:44 51°27.017 2°53.43 4.6 8 17.1 100420 86
2008-05-28 07:39:49 51°27.036 2°53.433 4.4 8 17.1 100430 86
2008-05-28 07:39:55 51°27.058 2°53.435 5.8 10 17.1 100430 86
2008-05-28 07:39:59 51°27.072 2°53.437 4.9 5 17.1 100430 86
2008-05-28 07:40:04 51°27.091 2°53.439 5.3 5 17.1 100430 86
2008-05-28 07:40:09 51°27.109 2°53.442 5.2 8 17.1 100430 86
2008-05-28 07:40:14 51°27.128 2°53.445 5.4 6 17.1 100430 86
2008-05-28 07:40:20 51°27.15 2°53.448 5.4 9 17.1 100430 86
2008-05-28 07:40:24 51°27.165 2°53.451 5.2 7 17.1 100430 86
2008-05-28 07:40:29 51°27.183 2°53.453 6.2 8 17.1 100430 86
2008-05-28 07:40:34 51°27.201 2°53.456 5.3 8 17.1 100430 86
2008-05-28 07:40:39 51°27.22 2°53.459 5.8 7 17.1 100420 87
2008-05-28 07:40:44 51°27.239 2°53.461 5.4 7 17.1 100420 87
2008-05-28 07:40:49 51°27.257 2°53.464 6 6 17 100430 87
2008-05-28 07:40:54 51°27.276 2°53.467 5.1 6 17 100430 87
2008-05-28 07:40:59 51°27.294 2°53.47 5.5 8 17 100430 87
2008-05-28 07:41:04 51°27.313 2°53.472 6.3 8 17 100430 87
2008-05-28 07:41:09 51°27.331 2°53.475 6.3 13 17 100410 87
2008-05-28 07:41:14 51°27.35 2°53.477 6 9 17 100410 87
2008-05-28 07:41:19 51°27.369 2°53.479 5.6 9 17 100430 87
2008-05-28 07:41:24 51°27.387 2°53.481 5.3 5 17 100430 87
2008-05-28 07:41:29 51°27.406 2°53.483 5.7 8 17 100430 87
2008-05-28 07:41:34 51°27.425 2°53.486 5.8 6 17 100430 87
2008-05-28 07:41:39 51°27.443 2°53.488 5.4 7 17 100430 87
2008-05-28 07:41:44 51°27.462 2°53.49 5.5 7 17 100430 87
2008-05-28 07:41:49 51°27.481 2°53.493 5.5 9 17 100430 87
2008-05-28 07:41:55 51°27.503 2°53.496 6.2 8 17 100430 87
2008-05-28 07:41:59 51°27.518 2°53.499 5.7 13 17 100440 87
2008-05-28 07:42:04 51°27.537 2°53.501 5.5 11 17 100440 87
2008-05-28 07:42:09 51°27.556 2°53.504 6.1 12 17 100430 87
2008-05-28 07:42:14 51°27.574 2°53.506 5 9 17 100430 87
2008-05-28 07:42:20 51°27.597 2°53.509 5.5 8 17 100420 87
2008-05-28 07:42:24 51°27.612 2°53.51 5.6 7 17 100420 87
2008-05-28 07:42:29 51°27.63 2°53.512 5.3 12 17 100430 87
2008-05-28 07:42:34 51°27.649 2°53.514 2.6 7 17 100430 87
2008-05-28 07:42:39 51°27.668 2°53.516 4.7 6 17 100430 87
2008-05-28 07:42:44 51°27.687 2°53.517 4.7 8 17 100430 87
2008-05-28 07:42:49 51°27.705 2°53.519 5.3 9 17 100430 87
2008-05-28 07:42:54 51°27.724 2°53.522 4.4 9 17 100430 87
2008-05-28 07:42:59 51°27.742 2°53.523 5.5 8 17 100430 87
2008-05-28 07:43:04 51°27.761 2°53.526 5.3 8 17 100430 87
2008-05-28 07:43:09 51°27.779 2°53.528 5.5 9 17 100440 87
2008-05-28 07:43:14 51°27.798 2°53.53 4.8 7 17 100440 87
2008-05-28 07:43:19 51°27.816 2°53.532 4.5 8 17 100430 87
2008-05-28 07:43:24 51°27.835 2°53.534 4.9 7 17 100430 87
2008-05-28 07:43:29 51°27.853 2°53.537 5.6 11 17 100430 87
2008-05-28 07:43:34 51°27.872 2°53.539 5.5 12 17 100430 87
2008-05-28 07:43:39 51°27.89 2°53.542 5.5 10 17 100420 87
2008-05-28 07:43:44 51°27.909 2°53.544 5.4 7 17 100420 87
2008-05-28 07:43:49 51°27.927 2°53.547 5.7 6 17 100420 87
2008-05-28 07:43:54 51°27.945 2°53.549 4.4 6 17 100420 87
2008-05-28 07:43:59 51°27.963 2°53.551 5.6 8 17 100440 87
2008-05-28 07:44:04 51°27.981 2°53.553 5.8 5 17 100440 87
2008-05-28 07:44:09 51°28 2°53.556 5.7 8 17 100440 87
2008-05-28 07:44:14 51°28.018 2°53.559 5.2 6 17 100440 87
2008-05-28 07:44:20 51°28.04 2°53.562 6.9 8 17 100420 87
2008-05-28 07:44:24 51°28.055 2°53.564 6.2 12 17 100420 87
2008-05-28 07:44:29 51°28.074 2°53.566 7 9 17 100430 87
2008-05-28 07:44:34 51°28.092 2°53.569 5.8 8 17 100430 87
2008-05-28 07:44:39 51°28.111 2°53.573 6.3 8 17 100430 87
2008-05-28 07:44:44 51°28.13 2°53.576 6.5 10 17 100430 87
2008-05-28 07:44:49 51°28.148 2°53.58 6.1 8 17 100440 87
2008-05-28 07:44:54 51°28.167 2°53.583 6 5 17 100440 87
2008-05-28 07:44:59 51°28.185 2°53.586 5.7 6 17 100430 87
2008-05-28 07:45:04 51°28.204 2°53.59 5.7 7 17 100430 87
2008-05-28 07:45:09 51°28.223 2°53.594 5.8 1 17 100430 87
2008-05-28 07:45:14 51°28.241 2°53.597 4.6 5 17 100430 87
2008-05-28 07:45:19 51°28.259 2°53.601 6 9 17 100440 87
2008-05-28 07:45:24 51°28.278 2°53.604 5.1 5 17 100440 87
2008-05-28 07:45:29 51°28.296 2°53.608 6 9 16.9 100430 87
2008-05-28 07:45:34 51°28.315 2°53.61 5.8 8 16.9 100430 87
2008-05-28 07:45:39 51°28.334 2°53.614 5.3 5 16.9 100430 87
2008-05-28 07:45:44 51°28.352 2°53.617 5.1 7 16.9 100430 87
2008-05-28 07:45:49 51°28.371 2°53.619 5.7 7 17 100430 87
2008-05-28 07:45:54 51°28.389 2°53.622 6.3 9 17 100430 87
2008-05-28 07:45:59 51°28.408 2°53.624 6 5 16.9 100440 87
2008-05-28 07:46:04 51°28.427 2°53.626 6.4 10 16.9 100440 87
2008-05-28 07:46:09 51°28.445 2°53.629 5.5 4 16.9 100440 87
2008-05-28 07:46:14 51°28.464 2°53.631 6.1 9 16.9 100440 87
2008-05-28 07:46:19 51°28.482 2°53.633 6 8 16.9 100420 87
2008-05-28 07:46:24 51°28.501 2°53.636 5.7 3 16.9 100420 87
2008-05-28 07:46:29 51°28.52 2°53.639 5 8 16.9 100430 87
2008-05-28 07:46:35 51°28.542 2°53.642 5.9 5 16.9 100430 87
2008-05-28 07:46:39 51°28.557 2°53.644 6 5 16.9 100430 87
2008-05-28 07:46:44 51°28.575 2°53.647 5.1 4 16.9 100430 87
2008-05-28 07:46:49 51°28.593 2°53.649 5.5 7 16.9 100420 87
2008-05-28 07:46:54 51°28.611 2°53.651 5.6 5 16.9 100420 87
2008-05-28 07:46:59 51°28.63 2°53.653 6.6 7 16.9 100440 87
2008-05-28 07:47:04 51°28.648 2°53.655 5.8 8 16.9 100440 87
2008-05-28 07:47:09 51°28.667 2°53.656 5.1 5 16.9 100440 87
2008-05-28 07:47:14 51°28.685 2°53.658 5.2 6 16.9 100440 87
2008-05-28 07:47:19 51°28.703 2°53.66 5.2 358 16.9 100430 87
2008-05-28 07:47:24 51°28.721 2°53.662 6 8 16.9 100430 87
2008-05-28 07:47:29 51°28.74 2°53.664 5.5 4 16.9 100430 87
2008-05-28 07:47:34 51°28.758 2°53.666 6.6 9 16.9 100430 87
2008-05-28 07:47:39 51°28.776 2°53.668 6.3 12 16.9 100440 87
2008-05-28 07:47:44 51°28.795 2°53.669 6.4 9 16.9 100440 87
2008-05-28 07:47:49 51°28.813 2°53.67 4.4 6 16.9 100430 87
2008-05-28 07:47:54 51°28.832 2°53.672 6.4 9 16.9 100430 87
2008-05-28 07:47:59 51°28.85 2°53.675 5.5 7 16.9 100420 87
2008-05-28 07:48:04 51°28.869 2°53.676 5.8 7 16.9 100420 87
2008-05-28 07:48:09 51°28.887 2°53.678 5.5 4 16.9 100430 87
2008-05-28 07:48:14 51°28.906 2°53.679 5.2 1 16.9 100430 87
2008-05-28 07:48:19 51°28.924 2°53.681 6.3 6 16.9 100430 87
2008-05-28 07:48:24 51°28.942 2°53.682 6.4 -999 16.9 100430 87
2008-05-28 07:48:29 51°28.96 2°53.683 5.6 2 16.9 100430 87
2008-05-28 07:48:34 51°28.979 2°53.685 5.6 7 16.9 100430 87
2008-05-28 07:48:39 51°28.997 2°53.686 4.9 6 16.9 100410 87
2008-05-28 07:48:44 51°29.015 2°53.688 5.7 6 16.9 100410 87
2008-05-28 07:48:49 51°29.034 2°53.689 5 5 16.9 100430 87
2008-05-28 07:48:54 51°29.052 2°53.691 6.4 4 16.9 100430 87
2008-05-28 07:49:00 51°29.074 2°53.693 5.9 6 16.9 100430 87
2008-05-28 07:49:04 51°29.089 2°53.695 5.2 3 16.9 100430 87
2008-05-28 07:49:09 51°29.108 2°53.696 5.7 5 16.9 100420 87
2008-05-28 07:49:14 51°29.126 2°53.698 5.9 7 16.9 100420 87
2008-05-28 07:49:19 51°29.145 2°53.699 4.8 7 16.9 100420 87
2008-05-28 07:49:24 51°29.163 2°53.701 4.9 -999 16.9 100420 87
2008-05-28 07:49:29 51°29.182 2°53.702 5.3 5 16.9 100420 87
2008-05-28 07:49:34 51°29.2 2°53.704 6.2 5 16.9 100420 87
2008-05-28 07:49:39 51°29.219 2°53.706 4.8 6 16.9 100430 87
2008-05-28 07:49:44 51°29.237 2°53.708 6.3 4 16.9 100430 87
2008-05-28 07:49:49 51°29.256 2°53.71 7.3 8 16.9 100420 86
2008-05-28 07:49:54 51°29.274 2°53.712 5.9 6 16.9 100420 86
2008-05-28 07:49:59 51°29.293 2°53.714 5.5 4 16.9 100430 86
2008-05-28 07:50:04 51°29.311 2°53.716 6 3 16.9 100430 86
2008-05-28 07:50:09 51°29.33 2°53.718 5.8 7 16.9 100420 86
2008-05-28 07:50:14 51°29.348 2°53.72 6.1 6 16.9 100420 86
2008-05-28 07:50:19 51°29.367 2°53.721 5.5 2 16.9 100420 86
2008-05-28 07:50:24 51°29.386 2°53.722 5.2 -999 16.9 100420 86
2008-05-28 07:50:29 51°29.404 2°53.724 6 5 16.9 100430 86
2008-05-28 07:50:34 51°29.423 2°53.725 6.5 9 16.9 100430 86
2008-05-28 07:50:39 51°29.441 2°53.727 5.9 6 16.9 100420 86
2008-05-28 07:50:44 51°29.459 2°53.729 5.8 7 16.9 100420 86
2008-05-28 07:50:49 51°29.478 2°53.731 6.5 9 16.9 100420 86
2008-05-28 07:50:54 51°29.496 2°53.732 5.2 8 16.9 100420 86
2008-05-28 07:51:00 51°29.518 2°53.736 6.4 9 16.9 100430 86
2008-05-28 07:51:04 51°29.533 2°53.738 6 7 16.9 100430 86